Cloud_Cover
100 92 88 95 100 100 100 100 65 94 46 14 39 5 74 83 51 43 52 89 100 100 100 100 100 100 100 95 97 71 72 78 97 99 98 100 100 100 100 100 100 100 100 100
99 100 55 99 100 99 94 82 100 93 92 100 81 59 49 100 100 91 100 100 100 100 100 100 100 92 67 80 70 78 90 100 100 100 100 100 100 100 100 100 100 100 100 100
16 100 62 100 100 100 97 90 28 50 79 57 77 85 87 76 76 100 100 100 100 100 100 100 100 100 100 92 98 90 99 100 100 100 100 100 100 100 100 100 100 100 100 100
96 100 94 61 29 100 78 40 11 26 98 87 71 75 75 84 100 100 100 100 100 100 95 94 57 27 66 60 80 92 100 100 100 100 100 100 100 100 100 100 100 100 100 100
66 42 20 9 100 73 39 38 100 72 60 100 100 100 100 100 100 99 100 100 100 100 95 68 74 93 98 99 99 100 100 100 100 100 100 100 100 100 100 100 100 100 100 100
43 91 63 100 30 39 59 100 100 100 100 100 87 89 94 100 100 94 100 98 86 100 79 99 100 100 100 100 100 100 100 100 100 100 100 100 100 100 100 100 100 100 100 100
100 100 100 97 94 100 100 90 26 5 5 96 85 38 83 84 98 100 99 85 97 100 100 100 100 100 100 100 100 100 100 100 100 100 100 100 100 100 100 100 100 100 100 100
100 100 94 92 63 62 48 7 43 44 46 100 100 100 87 98 100 100 100 100 100 100 100 100 100 100 100 100 100 100 100 100 100 100 100 100 100 100 100 100 100 100 100 100
100 100 100 70 53 60 78 78 66 43 89 97 100 100 100 100 100 100 100 100 100 100 100 100 100 100 100 100 100 100 100 100 100 100 100 100 100 100 100 100 100 100 100 100
100 100 92 100 100 100 15 74 28 100 83 100 100 100 100 100 100 100 100 100 100 100 100 100 100 100 100 100 100 100 100 100 100 100 100 100 100 100 100 100 100 100 100 100
100 98 100 100 92 99 86 67 98 99 100 100 96 88 100 100 100 100 100 100 100 100 100 100 100 100 100 100 100 100 100 100 100 100 100 100 100 100 100 100 100 100 100 100
98 73 9 48 91 9 52 94 78 100 100 100 100 100 100 100 100 100 100 100 100 100 100 100 100 100 100 100 100 100 100 100 100 100 100 100 100 100 100 100 100 100 100 100
96 5 5 5 98 46 68 78 89 100 100 100 100 100 100 100 100 100 100 100 100 100 100 100 100 100 100 100 100 100 100 100 100 100 100 100 100 100 100 100 100 100 100 100
28 52 100 42 64 68 86 75 92 95 100 100 100 100 100 100 100 100 100 100 100 100 100 100 100 100 100 100 100 100 100 100 100 100 98 100 100 100 100 100 100 100 100 100
100 89 20 27 47 96 100 100 96 100 100 100 100 100 100 100 100 100 100 100 100 100 100 100 100 100 100 100 100 100 100 77 33 5 5 5 5 8 5 24 64 55 76 78
100 76 54 51 97 98 100 100 100 100 100 100 100 100 100 100 100 100 100 100 100 100 100 100 100 100 100 100 100 100 100 59 5 5 5 5 5 5 5 5 5 46 71 98
96 97 93 87 100 100 100 100 100 100 100 100 100 100 100 100 100 100 100 100 100 100 100 100 100 100 100 100 100 100 47 5 5 5 5 5 8 12 7 5 47 53 72 81
50 23 100 100 100 100 100 100 100 100 100 100 100 100 100 100 100 100 100 100 100 100 100 100 100 96 91 88 98 55 39 23 5 5 5 9 38 7 5 10 49 81 88 56
5 5 25 100 100 100 100 100 100 100 100 100 100 100 100 100 100 100 100 100 100 94 80 79 84 99 82 72 15 5 5 27 40 29 6 28 7 36 63 47 66 74 85 94
83 90 10 44 98 100 100 100 100 100 100 100 100 100 100 100 100 100 100 100 100 99 80 44 31 15 5 11 34 5 5 51 51 44 51 43 51 73 75 72 100 100 100 100
95 85 83 88 87 100 100 100 100 100 100 100 100 100 100 100 100 100 98 99 72 28 11 9 5 61 96 43 5 34 9 41 86 91 76 88 85 88 83 91 94 86 100 100
91 98 92 82 76 86 99 100 100 100 100 100 100 100 100 100 100 100 99 98 99 76 34 76 70 88 35 15 5 8 38 52 47 26 67 82 99 100 95 98 100 100 100 100
97 86 94 95 100 100 100 100 100 100 100 100 100 98 100 100 100 100 94 93 94 100 96 94 81 61 61 58 21 35 60 5 47 90 96 99 98 100 100 100 92 72 77 97
100 100 100 100 100 100 100 100 100 100 100 100 92 100 97 100 100 96 99 100 90 84 82 68 81 69 5 5 17 39 8 7 57 99 59 63 88 14 6 77 92 52 71 92
100 100 100 100 100 100 100 100 100 100 100 100 100 100 100 100 99 100 100 97 100 100 100 93 68 22 5 5 58 22 5 56 100 96 95 85 100 99 57 61 84 78 98 100
100 100 100 100 100 100 100 100 100 100 100 100 100 100 100 100 100 100 100 100 100 100 97 84 75 60 5 7 5 5 5 54 99 44 67 73 31 9 80 67 57 100 93 100
100 100 100 100 100 100 100 100 100 100 100 100 100 100 100 100 100 100 92 77 88 85 83 62 8 17 5 14 5 5 5 51 96 65 62 59 60 92 94 65 60 50 6 21